Location: Piotrkow Trybunalski
(51.4000°N, 19.6830°E)
Time: 21:48:53
(UTC+02:00)

Explorer 7 - Pass Details

Date: 19 September 2024
Orbit: 460 x 606 km, 50.3° (Epoch: 12 October)

Event Time Altitude Azimuth Distance (km) Brightness Sun altitude
Exits shadow 04:59:20 24° 268° (W) 1,022 7.6 -13.6°
Maximum altitude 05:01:26 70° 188° (S) 497 6.4 -13.3°
Drops below altitude 10° 05:05:01 10° 105° (ESE) 1,604 10.1 -12.8°
Sets 05:07:09 0° 103° (ESE) 2,477 11.2 -12.4°
